TimePST,TemperatureF,Dew PointF,Humidity,Sea Level PressureIn,VisibilityMPH,Wind Direction,Wind SpeedMPH,Gust SpeedMPH,PrecipitationIn,Events,Conditions,WindDirDegrees,DateUTC
12:53 AM,34.0,32.0,92,30.34,10.0,Calm,Calm,-,N/A,,Clear,0,2012-11-23 08:53:00
1:53 AM,34.0,30.9,89,30.34,10.0,Calm,Calm,-,N/A,,Clear,0,2012-11-23 09:53:00
2:53 AM,33.1,30.9,92,30.33,10.0,Calm,Calm,-,N/A,,Clear,0,2012-11-23 10:53:00
3:53 AM,32.0,30.0,92,30.32,10.0,Calm,Calm,-,N/A,,Clear,0,2012-11-23 11:53:00
4:53 AM,32.0,30.9,96,30.31,10.0,SSE,3.5,-,N/A,,Clear,150,2012-11-23 12:53:00
5:53 AM,32.0,30.9,96,30.30,10.0,Calm,Calm,-,N/A,,Clear,0,2012-11-23 13:53:00
6:53 AM,30.9,28.9,92,30.30,10.0,Calm,Calm,-,N/A,,Clear,0,2012-11-23 14:53:00
7:53 AM,33.1,32.0,96,30.30,10.0,SSE,3.5,-,N/A,,Clear,160,2012-11-23 15:53:00
8:53 AM,36.0,33.1,89,30.29,10.0,Calm,Calm,-,N/A,,Clear,0,2012-11-23 16:53:00
9:53 AM,37.9,35.1,89,30.30,10.0,Calm,Calm,-,N/A,,Clear,0,2012-11-23 17:53:00
10:53 AM,39.0,35.1,86,30.28,10.0,SE,3.5,-,N/A,,Clear,140,2012-11-23 18:53:00
11:53 AM,39.9,35.1,83,30.24,10.0,East,3.5,-,N/A,,Clear,100,2012-11-23 19:53:00
12:53 PM,41.0,35.1,79,30.22,10.0,NNE,3.5,-,N/A,,Clear,30,2012-11-23 20:53:00
1:53 PM,41.0,36.0,82,30.20,10.0,Calm,Calm,-,N/A,,Clear,0,2012-11-23 21:53:00
2:53 PM,42.1,37.0,82,30.18,10.0,Calm,Calm,-,N/A,,Clear,0,2012-11-23 22:53:00
3:53 PM,42.1,37.0,82,30.17,10.0,Calm,Calm,-,N/A,,Overcast,0,2012-11-23 23:53:00
4:53 PM,41.0,37.9,89,30.15,10.0,Calm,Calm,-,N/A,,Overcast,0,2012-11-24 00:53:00
5:53 PM,41.0,37.0,86,30.13,10.0,Calm,Calm,-,N/A,,Overcast,0,2012-11-24 01:53:00
6:53 PM,41.0,37.0,86,30.14,10.0,Calm,Calm,-,N/A,,Overcast,0,2012-11-24 02:53:00
7:53 PM,41.0,39.0,93,30.14,10.0,SSE,3.5,-,0.01,Rain,Light Rain,160,2012-11-24 03:53:00
8:53 PM,41.0,39.0,93,30.15,8.0,South,4.6,-,0.01,Rain,Light Rain,190,2012-11-24 04:53:00
9:53 PM,42.1,39.9,92,30.14,10.0,SW,4.6,-,0.00,,Overcast,230,2012-11-24 05:53:00
10:53 PM,41.0,39.9,96,30.14,7.0,NNW,5.8,-,0.00,Rain,Light Rain,340,2012-11-24 06:53:00
11:53 PM,42.1,41.0,96,30.17,9.0,Calm,Calm,-,0.01,,Overcast,0,2012-11-24 07:53:00